Powrót do katalogu

FENGYUN 1C DEB

AktywnySSO
NORAD 40999·DEBRIS·🇨🇳 China

Wystrzelony May 10, 1999 z Taiyuan Satellite Launch Center

Loading…

Następne Przeloty (najbliższe 24 godziny)

TLE

ŚwieżeSource: Space-Track

Epoka: Sep 14, 2026, 10:07 UTC

1 40999U 99025EXD 26257.42211043  .00000726  00000-0  47221-3 0  9999
2 40999  99.1029 328.8122 0057701 210.8778 148.8991 14.04965814854315

Śledź FENGYUN 1C DEB w czasie rzeczywistym z AllMySat

Download on the App Store